Location: Bains de Lavey
(46.2043°N, 7.0176°E)
Time: 00:20:16
(UTC+00:00)

Daily predictions for brighter satellites

Satellite Brightness Start Highest point End
(mag) Time Altitude Azimuth Time Altitude Azimuth Time Altitude Azimuth
SL-16 R/B 3.9 00:02:19 17° ESE 00:04:02 20° E 00:08:02 10° NE
Lacrosse 5 3.2 00:07:00 25° ESE 00:07:00 25° ESE 00:11:04 10° ENE
USA 306 2.8 00:07:12 67° SE 00:07:12 67° SE 00:11:11 10° ENE
SL-16 R/B 4.3 00:02:21 10° ESE 00:07:25 28° ENE 00:12:33 10° N
Cosmos 1980 3.8 00:06:08 47° S 00:07:37 65° ESE 00:13:13 10° NNE
Cosmos 371 Rocket 3.2 00:06:52 58° S 00:07:46 76° ESE 00:12:37 10° NNE
Cosmos 2333 Rocket 3.6 00:07:16 16° WSW 00:10:59 31° NW 00:16:02 10° NNE
Cosmos 1461 4.0 00:07:15 10° NW 00:10:09 31° W 00:10:09 31° W
USA 307 2.9 00:11:14 63° SE 00:11:14 63° SE 00:15:12 10° ENE
Meteor 2-10 Rocket 4.1 00:08:47 10° N 00:14:23 58° ENE 00:16:52 31° SE
ATLAS CENTAUR R/B 3.6 00:11:45 10° WNW 00:13:49 16° W 00:13:49 16° W
Cosmos 304 Rocket 4.0 00:15:45 49° SSE 00:16:40 58° ESE 00:21:24 10° NNE
ASTEX 1 3.9 00:12:08 10° N 00:16:50 47° WNW 00:18:02 39° WSW
Cosmos 1709 Rocket 4.0 00:10:44 10° N 00:16:52 76° E 00:19:32 36° SSE
Cosmos 2084 Rocket 4.4 00:19:40 29° ESE 00:19:40 29° ESE 00:22:34 10° ENE
USA 267 3.3 00:17:02 35° SSE 00:19:37 54° SW 00:26:02 10° WNW
Cosmos 2315 Rocket 4.2 00:18:32 37° SSE 00:21:10 68° E 00:27:31 10° NNE
NOSS 2-2 (C) 4.3 00:18:22 10° NW 00:23:31 68° SW 00:26:47 32° SSE
Cosmos 1674 Rocket 4.1 00:23:08 41° WSW 00:23:48 45° WNW 00:27:58 10° N
USA 229 DEB 3.9 00:19:14 10° NW 00:26:33 64° WSW 00:30:40 30° SSE
USA 229 3.9 00:19:20 10° NW 00:26:39 65° WSW 00:30:48 29° SSE
S3M 4.1 00:24:09 38° SSW 00:26:40 67° W 00:33:01 10° N
Cosmos 2219 Rocket 3.7 00:26:28 16° WSW 00:30:03 29° NW 00:34:55 10° N
Cosmos 1455 4.4 00:28:56 10° NNE 00:31:41 19° ENE 00:33:50 13° ESE
Cosmos 2150 Rocket 4.2 00:32:32 41° SW 00:34:13 63° WNW 00:39:22 10° NNE
MOZ.5/SAFIR/RUBIN 5/SL-8 3.9 00:34:54 39° SSE 00:36:37 76° ENE 00:41:23 10° N
CZ-2D R/B 3.1 00:33:32 10° NNE 00:38:29 37° E 00:40:53 24° SE
Cosmos 1455 Rocket 3.2 00:36:33 10° N 00:41:02 70° E 00:42:27 41° SSE
USA 308 2.8 00:40:45 51° WSW 00:41:44 81° NNW 00:45:56 10° NE
Cosmos 1300 2.7 00:40:06 10° NNW 00:43:50 58° W 00:43:56 57° WSW
Cosmos 1125 Rocket 4.0 00:43:32 33° WSW 00:45:30 49° WNW 00:50:34 10° NNE
NOSS 0 Rocket 4.3 00:45:00 29° WSW 00:48:10 57° WNW 00:54:20 10° NNE
Meteor 2-5 Rocket 3.9 00:50:14 33° S 00:52:50 69° E 00:58:28 10° NNE
SL-14 R/B 4.2 00:53:24 32° W 00:53:54 33° WNW 00:57:26 10° N
ERBS 2.4 00:55:13 57° NW 00:55:14 57° NW 00:58:16 10° NE
CZ-4C R/B 3.8 00:50:38 10° NW 00:57:08 32° WSW 00:59:24 28° SW
Cosmos 1975 Rocket 3.0 00:56:40 48° SSW 00:57:53 83° W 01:02:23 10° N
Cosmos 2237 Rocket 2.6 00:56:44 31° SW 00:59:21 57° WNW 01:05:00 10° NNE
Cosmos 1025 Rocket 2.9 01:00:08 46° S 01:01:22 86° E 01:05:42 10° N
COSMOS 2428 4.4 00:59:51 12° W 01:03:58 24° NW 01:08:35 10° N
Resurs 1-4 Rocket 2.3 00:59:14 10° NNE 01:04:28 63° ESE 01:07:01 30° S
USA 305 3.5 01:02:25 25° W 01:04:36 53° NNW 01:08:42 10° NE
SME Rocket 3.1 01:03:28 43° S 01:04:44 72° WSW 01:09:51 10° NNW
Cosmos 332 Rocket 4.1 01:08:19 35° SW 01:10:06 56° WNW 01:14:50 10° NNE
CZ-4 R/B 3.9 01:06:36 10° NNE 01:11:15 69° ESE 01:13:12 34° S
Cosmos 1943 Rocket 2.1 01:08:50 10° NNW 01:14:33 90° NE 01:19:23 15° SSE
Lacrosse 5 rocket 1.6 01:14:37 42° SSE 01:15:18 47° SE 01:19:12 10° ENE
IDEFIX/ARIANE 42P 3.7 01:12:31 10° NNE 01:17:24 37° E 01:21:04 16° SSE
GP-B 3.9 01:14:09 10° NNW 01:18:14 37° W 01:19:29 31° WSW
ADEOS II 2.9 01:13:16 10° NNE 01:18:18 44° E 01:21:40 20° SSE
UNK 4.0 01:15:35 19° SSE 01:18:47 66° ENE 01:23:23 10° N
Cosmos 614 Rocket 4.5 01:14:27 10° NNW 01:19:37 60° ENE 01:24:45 10° SE
Cosmos 1953 4.3 01:18:00 10° NW 01:20:15 15° W 01:20:22 15° W
Cosmos 2297 3.8 01:14:34 10° NNW 01:20:22 80° ENE 01:26:06 10° SSE
Thor Agena Rocket 4.0 01:16:39 10° N 01:21:47 53° WNW 01:24:18 29° SW
Cosmos 1544 Rocket 3.5 01:23:07 10° NNW 01:27:32 74° W 01:29:32 32° S
Helios 1A 3.9 01:25:18 10° SE 01:29:17 47° ENE 01:33:21 10° N
Cosmos 2278 Rocket 3.5 01:25:48 10° NW 01:29:52 20° W 01:30:39 20° WSW
Cosmos 2154 Rocket 4.2 01:25:27 10° N 01:31:50 75° E 01:37:42 12° SSE
EO 1 Del DPAF 4.1 01:31:13 10° NNE 01:34:32 38° E 01:36:19 22° SSE
MOS 1 Rocket 3.0 01:33:16 21° SSE 01:36:07 84° ENE 01:40:27 10° N
NPP 3.6 01:32:55 10° NNE 01:38:21 83° WNW 01:41:35 25° SSW
Cosmos 2369 Rocket 2.6 01:38:05 10° NNW 01:43:39 62° ENE 01:49:11 10° SE
USA 306 4.2 01:42:58 10° W 01:46:50 36° NNW 01:50:44 10° NE
Cosmos 1656 Rocket 4.4 01:41:43 10° NNW 01:47:02 53° ENE 01:52:20 10° SE
SL-16 R/B 2.3 01:44:11 25° SW 01:47:35 68° WNW 01:53:15 10° NNE
Meteor 1-28 Rocket 3.1 01:46:34 19° SSE 01:49:09 85° ENE 01:52:54 10° NNW
Lacrosse 5 2.0 01:46:10 22° WSW 01:49:30 71° NW 01:54:37 10° NE
SL-16 R/B 2.6 01:45:54 18° S 01:50:36 60° WSW 01:56:48 10° NNW
USA 307 4.1 01:46:57 10° W 01:50:53 38° NNW 01:54:48 10° NE
Cosmos 2074 Rocket 4.2 01:48:33 10° NNW 01:54:40 55° W 01:59:10 19° SSW
AQUA 3.9 01:57:09 10° N 02:01:52 63° WNW 02:04:57 21° SSW
Cosmos 1455 3.1 02:03:56 10° NNW 02:07:13 30° W 02:08:35 23° SW
Cosmos 2184 Rocket 4.5 02:04:49 10° NNW 02:10:39 43° W 02:15:07 16° SSW
Cosmos 1603 4.4 02:06:20 12° S 02:11:16 48° ESE 02:16:42 10° NE
COSMOS 2455 2.9 02:08:44 19° SW 02:13:14 79° WNW 02:19:18 10° NNE
Cosmos 407 Rocket 4.0 02:09:16 10° NNW 02:14:34 63° ENE 02:19:46 10° SSE
Cosmos 2228 3.0 02:10:20 10° NNW 02:14:42 74° W 02:18:53 11° S
Cosmos 1271 Rocket 3.0 02:11:43 10° NNW 02:15:23 46° W 02:18:01 18° SSW
CZ-2D R/B 3.1 02:13:40 10° N 02:18:27 34° WNW 02:22:12 15° WSW
Cosmos 1140 Rocket 3.7 02:17:31 10° NNW 02:22:48 76° ENE 02:28:02 10° SSE
MSX 3.9 02:19:58 10° NNE 02:25:46 80° WNW 02:31:11 12° SSW
Cosmos 962 Rocket 4.4 02:21:47 10° NNW 02:27:55 77° W 02:34:00 10° S
Cosmos 1536 Rocket 4.5 02:25:14 17° SW 02:28:05 34° WNW 02:32:06 10° N
Cosmos 292 Rocket 4.2 02:25:27 16° SW 02:29:04 50° WNW 02:33:44 10° NNE
Cosmos 2058 Rocket 4.1 02:25:21 10° N 02:29:37 48° ENE 02:33:49 10° SSE
Cosmos 2181 Rocket 4.3 02:27:25 10° S 02:33:36 70° E 02:39:44 10° NNE
NOSS 3-3 (A) 3.9 02:30:11 14° SSW 02:35:08 79° SE 02:41:38 10° NE
NOSS 3-3 (C) 3.9 02:30:17 14° SSW 02:35:13 78° SE 02:41:43 10° NE
Cosmos 1023 Rocket 4.5 02:35:23 10° NNW 02:40:40 75° WSW 02:45:54 10° SSE
Genesis I 3.2 02:36:45 10° NW 02:40:50 88° WSW 02:44:49 10° SE
Cosmos 1943 3.2 02:36:10 12° SSW 02:41:34 90° WNW 02:47:18 10° NNE
Resurs 1-4 Rocket 3.7 02:39:58 10° NNW 02:43:49 21° WNW 02:47:41 10° WSW
Meteor 2-1 Rocket 4.3 02:38:50 10° NNW 02:44:32 64° W 02:50:05 10° S
Cosmos 2237 Rocket 4.4 02:41:58 10° WNW 02:44:45 14° NW 02:47:32 10° N
DEBRIS 3.7 02:34:48 10° WNW 02:45:22 82° NNE 02:48:35 10° ESE
Helios 1B rocket 2.6 02:43:19 10° NNE 02:47:23 74° ESE 02:51:26 10° S
Cosmos 1328 3.9 02:44:35 10° SSW 02:48:30 63° W 02:52:29 10° N
Cosmos 1606 Rocket 3.9 02:46:20 10° NNW 02:50:35 46° W 02:54:45 10° SSW
ARIANE 5 R/B 3.6 02:47:44 10° NNE 02:52:33 42° E 02:57:17 10° S
Cosmos 1624 Rocket 4.4 02:47:22 10° S 02:52:37 65° ESE 02:57:52 10° NNE
Lacrosse 5 rocket 2.6 02:50:52 10° W 02:54:29 34° NNW 02:58:18 10° NE
CBERS-1 4.0 02:50:50 10° NNE 02:55:58 81° WNW 03:01:05 10° SSW
IDEFIX/ARIANE 42P 3.5 02:52:13 10° N 02:56:54 33° WNW 03:01:34 10° SW
Cosmos 1943 Rocket 3.9 02:54:34 10° WNW 02:57:27 14° W 03:00:19 10° SW
ADEOS II 3.3 02:53:21 10° N 02:57:46 28° WNW 03:02:10 10° WSW
SL-19 R/B 4.5 02:51:50 10° NNE 02:57:58 77° WNW 03:03:46 10° SSW
FENGYUN 3A 3.9 02:53:56 10° NNE 02:59:20 73° ESE 03:04:42 10° S
Gblst 52 Del rocket 4.3 02:53:42 10° WNW 02:59:22 80° NNE 03:04:53 10° ESE
Cosmos 2056 Rocket 3.6 02:59:16 10° SSW 03:04:27 80° ESE 03:09:45 10° NNE
Cosmos 1825 3.5 03:01:09 10° SSE 03:04:36 39° E 03:08:06 10° NNE
IRS-1D 4.2 03:04:04 10° N 03:09:04 43° WNW 03:14:01 10° SW
BREEZE-M DEB (TANK) 3.7 03:04:33 10° WNW 03:11:30 57° N 03:14:14 10° E
Cosmos 2366 rocket 4.1 03:05:38 10° NNW 03:11:41 61° W 03:17:45 10° S
Lacrosse 4 Rocket 2.6 03:08:41 10° S 03:12:42 39° ESE 03:16:38 10° NE
Intercosmos 25 Rocket 4.4 03:09:33 10° N 03:12:51 49° E 03:17:24 10° SSE
ALOS 2.4 03:09:28 10° NNE 03:14:10 84° ESE 03:18:50 10° SSW
Cosmos 1190 Rocket 4.1 03:11:59 10° NNW 03:17:11 59° WSW 03:22:23 10° S
SL-8 Rocket 4.4 03:12:14 10° NNW 03:18:13 46° W 03:24:11 10° SSW
